Sigfox identifier Datetime Temperature Humidity SNR
003A3FCE 2019-04-23 15:03:39 16.5 32 22.7
003A3FCE 2019-04-23 14:31:19 16.3 32 22.6
003A3FCE 2019-04-23 13:59:01 16.3 32 22.2
003A3FCE 2019-04-23 13:26:42 16.3 32 22.1
003A3FCE 2019-04-23 12:54:24 16 32 21.8
003A3FCE 2019-04-23 12:22:05 16 32 21.8
003A3FCE 2019-04-23 11:49:46 15.9 32 21.7
003A3FCE 2019-04-23 11:17:28 15.8 32 21.5
003A3FCE 2019-04-23 10:45:10 15.8 32 20.9
003A3FCE 2019-04-23 10:12:52 15.8 32 21
003A3FCE 2019-04-23 09:40:35 15.8 31 20.7
003A3FCE 2019-04-23 09:08:18 15.7 31 20.3
003A3FCE 2019-04-23 08:36:00 15.6 31 20.2
003A3FCE 2019-04-23 08:03:41 15.6 31 19.7
003A3FCE 2019-04-23 07:31:22 15.6 31 19.6
003A3FCE 2019-04-23 06:59:04 15.6 31 19.8
003A3FCE 2019-04-23 06:26:45 15.6 31 19.8
003A3FCE 2019-04-23 05:54:26 15.6 31 19.9
003A3FCE 2019-04-23 05:22:08 15.6 31 20.1
003A3FCE 2019-04-23 04:49:49 15.6 31 20.2
003A3FCE 2019-04-23 04:17:30 15.6 31 20.2
003A3FCE 2019-04-23 03:45:10 15.6 31 21.5
003A3FCE 2019-04-23 03:12:56 15.6 31 21.7
003A3FCE 2019-04-23 02:40:33 15.6 31 21.7
003A3FCE 2019-04-23 02:08:13 15.6 31 21.8
003A3FCE 2019-04-23 01:35:54 15.6 31 21.7
003A3FCE 2019-04-23 01:03:35 15.6 31 21.8
003A3FCE 2019-04-23 00:31:16 15.6 31 21.9
003A3FCE 2019-04-22 23:58:56 15.6 31 21.9
003A3FCE 2019-04-22 23:26:38 15.6 31 21.8
003A3FCE 2019-04-22 22:54:19 15.7 31 21.7
003A3FCE 2019-04-22 22:22:00 15.8 31 21.6
003A3FCE 2019-04-22 21:49:41 15.8 31 21.5
003A3FCE 2019-04-22 21:17:22 15.8 31 21.3
003A3FCE 2019-04-22 20:45:03 15.8 31 21.2
003A3FCE 2019-04-22 20:12:44 15.8 31 21.1
003A3FCE 2019-04-22 19:40:25 15.9 31 21.1
003A3FCE 2019-04-22 19:08:06 16 31 21.1
003A3FCE 2019-04-22 18:35:47 16 31 21.1
003A3FCE 2019-04-22 18:03:28 16 31 21
003A3FCE 2019-04-22 17:31:09 16 31 20.8
003A3FCE 2019-04-22 16:58:52 16 31 20.9
003A3FCE 2019-04-22 16:26:33 16 31 20.7
003A3FCE 2019-04-22 15:54:14 16 31 20.8
003A3FCE 2019-04-22 15:21:57 15.8 31 19
003A3FCE 2019-04-22 14:49:39 15.8 31 19
003A3FCE 2019-04-22 14:17:21 15.8 31 18.8
003A3FCE 2019-04-22 13:45:03 15.8 31 18.7
003A3FCE 2019-04-22 13:12:45 15.8 31 18.6
003A3FCE 2019-04-22 12:40:27 15.8 31 18.4
003A3FCE 2019-04-22 12:08:09 15.8 31 18.1
003A3FCE 2019-04-22 11:35:52 15.8 31 17.9
003A3FCE 2019-04-22 11:03:34 15.8 31 17.7
003A3FCE 2019-04-22 10:31:17 15.7 31 17.8
003A3FCE 2019-04-22 09:59:00 15.6 31 17.8
003A3FCE 2019-04-22 09:26:42 15.6 31 18
003A3FCE 2019-04-22 08:54:25 15.6 31 18.1
003A3FCE 2019-04-22 08:22:07 15.6 31 18.1
003A3FCE 2019-04-22 07:49:49 15.6 31 18.2
003A3FCE 2019-04-22 07:17:31 15.6 30 18.3
003A3FCE 2019-04-22 06:45:13 15.6 30 18.4
003A3FCE 2019-04-22 06:12:55 15.7 30 18.4
003A3FCE 2019-04-22 05:40:38 15.6 30 18.6
003A3FCE 2019-04-22 05:08:20 15.6 30 18.9
003A3FCE 2019-04-22 04:36:02 15.6 30 18.9
003A3FCE 2019-04-22 04:03:44 15.6 30 18.9
003A3FCE 2019-04-22 03:31:25 15.6 30 18.9
003A3FCE 2019-04-22 02:59:07 15.6 30 19.1
003A3FCE 2019-04-22 02:26:49 15.6 30 19.2
003A3FCE 2019-04-22 01:54:31 15.6 30 19.3
003A3FCE 2019-04-22 01:22:14 15.6 30 19.4
003A3FCE 2019-04-22 00:49:56 15.5 30 19.3
003A3FCE 2019-04-22 00:17:38 15.6 30 19.4
003A3FCE 2019-04-21 23:45:21 15.5 30 19.5
003A3FCE 2019-04-21 23:13:04 15.4 30 19.4
003A3FCE 2019-04-21 22:40:45 15.4 30 19.4
003A3FCE 2019-04-21 22:08:27 15.5 30 19.3
003A3FCE 2019-04-21 21:36:08 15.5 30 19.4
003A3FCE 2019-04-21 21:03:50 15.4 30 19.3
003A3FCE 2019-04-21 20:31:33 15.4 30 19.2
003A3FCE 2019-04-21 19:59:15 15.5 30 19.2
003A3FCE 2019-04-21 19:26:57 15.4 30 19.4
003A3FCE 2019-04-21 18:54:40 15.4 30 19.6
003A3FCE 2019-04-21 18:22:23 15.4 30 19.6
003A3FCE 2019-04-21 17:50:07 15.4 30 19.4
003A3FCE 2019-04-21 17:17:50 15.4 30 19.5
003A3FCE 2019-04-21 16:45:33 15.4 30 19.6
003A3FCE 2019-04-21 16:13:15 15.4 30 19.7
003A3FCE 2019-04-21 15:40:57 15.4 30 19.8
003A3FCE 2019-04-21 15:08:39 15.4 30 19.8
003A3FCE 2019-04-21 14:36:21 15.4 30 20
003A3FCE 2019-04-21 14:04:04 15.4 30 20.1
003A3FCE 2019-04-21 13:31:46 15.4 30 19.9
003A3FCE 2019-04-21 12:59:29 15.4 30 19.8
003A3FCE 2019-04-21 12:27:13 15.4 30 19.8
003A3FCE 2019-04-21 11:54:56 15.4 30 19.8
003A3FCE 2019-04-21 11:22:40 15.4 30 19.8
003A3FCE 2019-04-21 10:50:22 15.4 30 19.8
003A3FCE 2019-04-21 10:18:05 15.4 30 19.8
003A3FCE 2019-04-21 09:45:47 15.6 30 19.8
003A3FCE 2019-04-21 09:13:33 15.6 30 19.8
003A3FCE 2019-04-21 08:41:13 15.6 30 19.9
003A3FCE 2019-04-21 08:08:55 15.7 30 19.9
003A3FCE 2019-04-21 07:36:38 15.7 30 19.9
003A3FCE 2019-04-21 07:04:21 15.6 29 20
003A3FCE 2019-04-21 06:32:04 15.6 29 19.9
003A3FCE 2019-04-21 05:59:46 15.6 29 19.7
003A3FCE 2019-04-21 05:27:28 15.6 29 19.5
003A3FCE 2019-04-21 04:55:12 15.6 29 19.5
003A3FCE 2019-04-21 04:22:52 15.6 29 19.3
003A3FCE 2019-04-21 03:50:34 15.6 29 19.2
003A3FCE 2019-04-21 03:18:17 15.6 29 19.2
003A3FCE 2019-04-21 02:46:00 15.6 29 19
003A3FCE 2019-04-21 02:13:43 15.6 29 19
003A3FCE 2019-04-21 01:41:25 15.6 29 18.8
003A3FCE 2019-04-21 01:09:07 15.6 29 18.8
003A3FCE 2019-04-21 00:36:49 15.6 29 19
003A3FCE 2019-04-21 00:04:31 15.6 29 19.2
003A3FCE 2019-04-20 23:32:12 15.4 29 19.4
003A3FCE 2019-04-20 22:59:57 15.4 29 19.4
003A3FCE 2019-04-20 22:27:36 15.5 29 19.6
003A3FCE 2019-04-20 21:55:18 15.5 29 19.7
003A3FCE 2019-04-20 21:23:02 15.5 29 19.7
003A3FCE 2019-04-20 20:50:45 15.6 29 19.7
003A3FCE 2019-04-20 20:18:28 15.5 29 19.7
003A3FCE 2019-04-20 19:46:11 15.6 29 19.8
003A3FCE 2019-04-20 19:13:53 15.6 29 19.7
003A3FCE 2019-04-20 18:41:35 15.6 29 19.7
003A3FCE 2019-04-20 18:09:18 15.6 29 19.5
003A3FCE 2019-04-20 17:37:00 15.6 29 19.4
003A3FCE 2019-04-20 17:04:42 15.5 29 19.4
003A3FCE 2019-04-20 16:32:25 15.6 29 19.3
003A3FCE 2019-04-20 16:00:06 15.6 29 19.3
003A3FCE 2019-04-20 15:27:49 15.6 29 19.3
003A3FCE 2019-04-20 14:55:32 15.5 29 19.2
003A3FCE 2019-04-20 14:23:12 15.4 29 19.3
003A3FCE 2019-04-20 13:50:55 15.4 29 19.1
003A3FCE 2019-04-20 13:18:37 15.5 29 19.2
003A3FCE 2019-04-20 12:46:19 15.5 29 19.2
003A3FCE 2019-04-20 12:14:01 15.6 29 19.2
003A3FCE 2019-04-20 11:41:41 15.6 29 19.1
003A3FCE 2019-04-20 11:09:22 15.6 29 18.8
003A3FCE 2019-04-20 10:37:01 15.6 29 18.6
003A3FCE 2019-04-20 10:04:41 15.6 28 18.4
003A3FCE 2019-04-20 09:32:21 15.6 28 18.4
003A3FCE 2019-04-20 09:00:01 15.6 28 18.3
003A3FCE 2019-04-20 08:27:41 15.6 28 18.4
003A3FCE 2019-04-20 07:55:22 15.6 28 18.2
003A3FCE 2019-04-20 07:23:06 15.8 28 18.4
003A3FCE 2019-04-20 06:50:45 15.7 28 18.7
003A3FCE 2019-04-20 06:18:27 15.6 28 18.8
003A3FCE 2019-04-20 05:46:08 15.7 28 18.9
003A3FCE 2019-04-20 05:13:49 15.6 28 19.1
003A3FCE 2019-04-20 04:41:30 15.6 28 19.2
003A3FCE 2019-04-20 04:09:13 15.6 28 19.3
003A3FCE 2019-04-20 03:36:56 15.6 28 19.4
003A3FCE 2019-04-20 03:04:38 15.8 28 19.6
003A3FCE 2019-04-20 02:32:21 15.8 28 19.7
003A3FCE 2019-04-20 02:00:04 15.8 28 19.8
003A3FCE 2019-04-20 01:27:46 15.8 28 20
003A3FCE 2019-04-20 00:55:28 15.9 28 20.1
003A3FCE 2019-04-20 00:23:10 16 28 20.2
003A3FCE 2019-04-19 23:50:51 16 28 20.4
003A3FCE 2019-04-19 23:18:34 16 28 20.5
003A3FCE 2019-04-19 22:46:16 16 28 20.6
003A3FCE 2019-04-19 22:13:59 16 28 20.8
003A3FCE 2019-04-19 21:41:41 16 28 20.6
003A3FCE 2019-04-19 21:09:23 16 28 20.7
003A3FCE 2019-04-19 20:37:05 16.1 28 20.5
003A3FCE 2019-04-19 20:04:48 16.1 28 20.4
003A3FCE 2019-04-19 19:32:30 16.3 28 20.3
003A3FCE 2019-04-19 19:00:12 16.3 28 20.2
003A3FCE 2019-04-19 18:27:53 16.3 28 20
003A3FCE 2019-04-19 17:55:36 16.3 28 19.8
003A3FCE 2019-04-19 17:23:20 16.3 28 19.5
003A3FCE 2019-04-19 16:51:02 16.2 28 19.4
003A3FCE 2019-04-19 16:18:44 16.1 28 19.2
003A3FCE 2019-04-19 15:46:28 16 28 19
003A3FCE 2019-04-19 15:14:11 16 28 18.9
003A3FCE 2019-04-19 14:41:54 16 28 18.8
003A3FCE 2019-04-19 14:09:36 16 28 18.7
003A3FCE 2019-04-19 13:37:19 16 28 18.5
003A3FCE 2019-04-19 13:05:02 16 27 18.3
003A3FCE 2019-04-19 12:32:45 15.9 27 18.1
003A3FCE 2019-04-19 12:00:30 15.8 27 17.8
003A3FCE 2019-04-19 11:28:15 15.8 27 17.7
003A3FCE 2019-04-19 10:55:58 15.8 27 17.3
003A3FCE 2019-04-19 10:23:41 15.8 27 17.2
003A3FCE 2019-04-19 09:51:23 15.8 27 17.4
003A3FCE 2019-04-19 09:19:05 15.8 27 17.4
003A3FCE 2019-04-19 08:46:48 15.8 27 17.3
003A3FCE 2019-04-19 08:14:29 15.8 27 17.5
003A3FCE 2019-04-19 07:42:11 15.8 27 17.6
003A3FCE 2019-04-19 07:09:52 15.8 27 17.9
003A3FCE 2019-04-19 06:37:33 15.8 27 18.1
003A3FCE 2019-04-19 06:05:16 15.8 27 18.3
003A3FCE 2019-04-19 05:32:59 15.9 27 18.7
003A3FCE 2019-04-19 05:00:41 15.9 27 18.9
003A3FCE 2019-04-19 04:28:22 15.8 27 19.2
003A3FCE 2019-04-19 03:56:07 16 27 19.4
003A3FCE 2019-04-19 03:23:47 16 27 19.4
003A3FCE 2019-04-19 02:51:28 15.9 27 19.7
003A3FCE 2019-04-19 02:19:10 16 27 19.9
003A3FCE 2019-04-19 01:46:52 16 27 20
003A3FCE 2019-04-19 01:14:33 16.1 27 20.5
003A3FCE 2019-04-19 00:42:14 16.3 27 20.8
003A3FCE 2019-04-19 00:09:55 16.3 27 21.1
003A3FCE 2019-04-18 23:37:36 16.3 27 21.4
003A3FCE 2019-04-18 23:05:17 16.5 27 21.6
003A3FCE 2019-04-18 22:32:58 16.5 27 21.6
003A3FCE 2019-04-18 22:00:40 16.5 27 22.6
003A3FCE 2019-04-18 21:28:22 16.5 27 22.6
003A3FCE 2019-04-18 20:56:04 16.5 27 22.6
003A3FCE 2019-04-18 20:23:45 16.5 27 22.7
003A3FCE 2019-04-18 19:51:27 16.6 27 22.7
003A3FCE 2019-04-18 19:19:08 16.7 27 22.6
003A3FCE 2019-04-18 18:46:52 16.7 26 22.7
003A3FCE 2019-04-18 18:14:35 16.6 26 22.6
003A3FCE 2019-04-18 17:42:19 16.7 26 22.6
003A3FCE 2019-04-18 17:10:04 16.5 26 22.7
003A3FCE 2019-04-18 16:37:47 16.5 26 22.7
003A3FCE 2019-04-18 16:05:30 16.5 26 22.7
003A3FCE 2019-04-18 15:33:14 16.5 26 22.7
003A3FCE 2019-04-18 15:00:57 16.3 26 22.8
003A3FCE 2019-04-18 14:28:39 16.3 26 22.8
003A3FCE 2019-04-18 13:56:21 16.3 26 22.8
003A3FCE 2019-04-18 13:24:04 16.2 26 22.8
003A3FCE 2019-04-18 12:51:47 16.2 26 22.7
003A3FCE 2019-04-18 12:19:30 16.1 26 22.8
003A3FCE 2019-04-18 11:47:12 16.2 26 22.4
003A3FCE 2019-04-18 11:14:55 16.2 26 22.3
003A3FCE 2019-04-18 10:42:38 16.2 26 22.2
003A3FCE 2019-04-18 10:10:19 16.1 26 22
003A3FCE 2019-04-18 09:38:02 16 26 21.9
003A3FCE 2019-04-18 09:05:44 16 26 22
003A3FCE 2019-04-18 08:33:25 16.2 26 20.9
003A3FCE 2019-04-18 08:01:08 16.2 26 21
003A3FCE 2019-04-18 07:28:51 16.1 26 21.1
003A3FCE 2019-04-18 06:56:34 16.1 26 20.9
003A3FCE 2019-04-18 06:24:16 16 26 21.1
003A3FCE 2019-04-18 05:51:59 16 26 21.3
003A3FCE 2019-04-18 05:19:41 16 26 21.7
003A3FCE 2019-04-18 04:47:23 16 26 21.6
003A3FCE 2019-04-18 04:15:05 16 26 21.5
003A3FCE 2019-04-18 03:42:48 16 25 21.5
003A3FCE 2019-04-18 03:10:32 16 25 21.4
003A3FCE 2019-04-18 02:38:16 16 25 21.6
003A3FCE 2019-04-18 02:05:59 16.1 25 21.6
003A3FCE 2019-04-18 01:33:42 16.3 25 21.6
003A3FCE 2019-04-18 01:01:26 16.3 25 21.6
003A3FCE 2019-04-18 00:29:10 16.5 25 21.7
003A3FCE 2019-04-17 23:56:54 16.5 25 21.7
003A3FCE 2019-04-17 23:24:37 16.7 25 21.8
003A3FCE 2019-04-17 22:52:22 16.7 25 21.7
003A3FCE 2019-04-17 22:20:06 16.7 25 21.9
003A3FCE 2019-04-17 21:47:50 16.7 25 21.8
003A3FCE 2019-04-17 21:15:34 16.6 25 21.7
003A3FCE 2019-04-17 20:43:18 16.5 25 21.7
003A3FCE 2019-04-17 20:11:00 16.5 25 21.7
003A3FCE 2019-04-17 19:38:41 16.5 25 21.7
003A3FCE 2019-04-17 19:06:22 16.5 25 21.7
003A3FCE 2019-04-17 18:34:04 16.5 25 21.6
003A3FCE 2019-04-17 18:01:46 16.5 25 21.4
003A3FCE 2019-04-17 17:29:29 16.5 25 21.5
003A3FCE 2019-04-17 16:57:11 16.5 25 22.4
003A3FCE 2019-04-17 16:24:54 16.5 25 22.3
003A3FCE 2019-04-17 15:52:38 16.5 25 22.1
003A3FCE 2019-04-17 15:20:21 16.5 24 22.2
003A3FCE 2019-04-17 14:48:04 16.7 24 22.1
003A3FCE 2019-04-17 14:15:45 16.7 24 22.1
003A3FCE 2019-04-17 13:11:09 17 24 21.8
003A3FCE 2019-04-17 12:38:52 16.9 24 21.9
003A3FCE 2019-04-17 12:06:35 16.9 24 21.7
003A3FCE 2019-04-17 11:34:19 16.8 24 21.6
003A3FCE 2019-04-17 11:02:03 16.7 24 21.7
003A3FCE 2019-04-17 10:29:47 16.7 24 21.5
003A3FCE 2019-04-17 09:57:32 16.7 24 21.4
003A3FCE 2019-04-17 09:25:17 16.7 24 21.4
003A3FCE 2019-04-17 08:53:02 16.8 24 21.3
003A3FCE 2019-04-17 08:20:48 16.9 24 21.3
003A3FCE 2019-04-17 07:48:31 17.1 24 21.2
003A3FCE 2019-04-17 07:16:15 17.1 24 21.3
003A3FCE 2019-04-17 06:43:59 17.3 24 21.1
003A3FCE 2019-04-17 06:11:43 17.3 24 21
003A3FCE 2019-04-17 05:39:27 17.4 23 21.3
003A3FCE 2019-04-17 05:07:10 17.5 23 21.3
003A3FCE 2019-04-17 04:34:54 17.5 23 21.6
003A3FCE 2019-04-17 04:02:39 17.6 23 21.7
003A3FCE 2019-04-17 03:30:23 17.7 23 20.3
003A3FCE 2019-04-17 02:58:07 17.8 23 20.2
003A3FCE 2019-04-17 02:25:51 17.8 23 20
003A3FCE 2019-04-17 01:53:34 17.8 23 19.9
003A3FCE 2019-04-17 01:21:17 17.8 23 20
003A3FCE 2019-04-17 00:49:00 17.8 23 20
003A3FCE 2019-04-17 00:16:45 17.8 23 20
003A3FCE 2019-04-16 23:44:28 17.8 23 20
003A3FCE 2019-04-16 23:12:11 17.8 23 19.8
003A3FCE 2019-04-16 22:39:53 18 23 19.7
003A3FCE 2019-04-16 22:07:37 18.2 23 19.7
003A3FCE 2019-04-16 21:35:21 18.4 22 19.7
003A3FCE 2019-04-16 21:03:06 18.6 22 19.9
003A3FCE 2019-04-16 20:30:51 18.8 22 19.8
003A3FCE 2019-04-16 19:58:36 18.8 22 20.1
003A3FCE 2019-04-16 19:26:20 18.8 22 20.1
003A3FCE 2019-04-16 18:54:05 18.8 22 20.3
003A3FCE 2019-04-16 18:21:50 18.8 22 20.3
003A3FCE 2019-04-16 17:49:38 19 22 20.1
003A3FCE 2019-04-16 17:17:21 19.1 22 20.2
003A3FCE 2019-04-16 16:45:06 19.2 22 20.1
003A3FCE 2019-04-16 16:12:52 19.5 22 19.7
003A3FCE 2019-04-16 15:08:25 20.1 21 19.5
003A3FCE 2019-04-16 14:36:10 20.5 21 19.2
003A3FCE 2019-04-16 14:03:55 21 21 19.3
003A3FCE 2019-04-16 13:31:42 21 22 19.6
003A3FCE 2019-04-16 12:59:28 21 21 20
003A3FCE 2019-04-16 12:27:16 21 21 20.3
003A3FCE 2019-04-16 11:55:00 21 21 20.4
003A3FCE 2019-04-16 11:22:46 21 21 20.1
003A3FCE 2019-04-16 10:50:33 21 21 20.1
003A3FCE 2019-04-16 10:18:19 21 21 20.2
003A3FCE 2019-04-16 09:46:06 21 21 20.2
003A3FCE 2019-04-16 09:13:55 21 21 20.2
003A3FCE 2019-04-16 08:41:39 21 21 20.4
003A3FCE 2019-04-16 08:09:26 21 21 20.7
003A3FCE 2019-04-16 07:37:14 21 21 20.6
003A3FCE 2019-04-16 07:04:58 21 21 20.5
003A3FCE 2019-04-16 06:32:45 21 21 20.4
003A3FCE 2019-04-16 06:00:31 21 21 20.4
003A3FCE 2019-04-16 05:28:18 21 21 20.4
003A3FCE 2019-04-16 04:56:05 21 21 20.4
003A3FCE 2019-04-16 04:23:52 21 21 20.3
003A3FCE 2019-04-16 03:51:39 21 21 21.7
003A3FCE 2019-04-16 03:19:26 21 21 21.6
003A3FCE 2019-04-16 02:47:12 21 21 21.7
003A3FCE 2019-04-16 02:14:58 21 21 21.6
003A3FCE 2019-04-16 01:42:47 21 21 21.6
003A3FCE 2019-04-16 01:10:32 21 20 21.6
003A3FCE 2019-04-16 00:38:18 21.1 20 22.4
003A3FCE 2019-04-16 00:06:05 21.2 20 22.4
003A3FCE 2019-04-15 23:33:52 21.1 20 22.2
003A3FCE 2019-04-15 23:01:37 21.2 20 22.4
003A3FCE 2019-04-15 22:29:26 21.2 20 22.5
003A3FCE 2019-04-15 21:57:13 21.2 20 22.7
003A3FCE 2019-04-15 21:24:57 21.2 20 22.9
003A3FCE 2019-04-15 20:52:43 21.2 20 22.9
003A3FCE 2019-04-15 20:20:30 21.2 20 23.7
003A3FCE 2019-04-15 19:48:16 21.2 20 24
003A3FCE 2019-04-15 19:16:03 21.2 20 24.1
003A3FCE 2019-04-15 18:43:51 21.1 20 24.1
003A3FCE 2019-04-15 18:11:35 21.2 19 24.3
003A3FCE 2019-04-15 17:39:23 21.2 19 24.4
003A3FCE 2019-04-15 17:07:10 21.4 19 24.5
003A3FCE 2019-04-15 16:34:55 21.4 19 24.6
003A3FCE 2019-04-15 16:02:43 21.5 19 24.7
003A3FCE 2019-04-15 15:30:28 21.6 19 24.8
003A3FCE 2019-04-15 14:58:14 21.6 19 25.2
003A3FCE 2019-04-15 14:26:00 21.7 18 25.2
003A3FCE 2019-04-15 13:53:46 21.8 18 25.5
003A3FCE 2019-04-15 13:21:33 22 18 25.7
003A3FCE 2019-04-15 12:49:19 22.2 18 25.8
003A3FCE 2019-04-15 12:17:06 22.2 17 26
003A3FCE 2019-04-15 11:44:53 22 16 26.1
003A3FCE 2019-04-15 11:12:40 22 16 25.8
003A3FCE 2019-04-15 10:40:26 22 17 25.9
003A3FCE 2019-04-15 10:08:12 21.9 17 26.1
003A3FCE 2019-04-15 09:35:57 21.9 17 26.1
003A3FCE 2019-04-15 09:03:44 21.8 17 26.1
003A3FCE 2019-04-15 08:31:32 21.8 17 26.4
003A3FCE 2019-04-15 07:59:20 21.8 17 26.6
003A3FCE 2019-04-15 07:27:08 21.7 18 26.6
003A3FCE 2019-04-15 06:54:55 21.7 18 26.3
003A3FCE 2019-04-15 06:22:41 21.6 18 26.3
003A3FCE 2019-04-15 05:50:28 21.6 18 26.3
003A3FCE 2019-04-15 05:18:12 21.6 18 26.3
003A3FCE 2019-04-15 04:45:59 21.6 18 26.3
003A3FCE 2019-04-15 04:13:45 21.6 18 26.3
003A3FCE 2019-04-15 03:41:32 21.6 18 26.3
003A3FCE 2019-04-15 03:09:18 21.6 18 26.3
003A3FCE 2019-04-15 02:37:03 21.6 18 26.2
003A3FCE 2019-04-15 02:04:49 21.6 18 26.2
003A3FCE 2019-04-15 01:32:35 21.6 18 26
003A3FCE 2019-04-15 01:00:20 21.6 18 25.7
003A3FCE 2019-04-15 00:28:05 21.6 18 25.6
003A3FCE 2019-04-14 23:55:51 21.6 18 25.5
003A3FCE 2019-04-14 23:23:37 21.6 18 25.6
003A3FCE 2019-04-14 22:51:23 21.7 18 25.6
003A3FCE 2019-04-14 22:19:09 21.8 18 25.5
003A3FCE 2019-04-14 21:46:55 21.8 19 25.5
003A3FCE 2019-04-14 21:14:42 21.8 19 25.7
003A3FCE 2019-04-14 20:42:28 21.8 19 25.6
003A3FCE 2019-04-14 20:10:16 21.8 19 25.7
003A3FCE 2019-04-14 19:38:03 21.8 19 25.6
003A3FCE 2019-04-14 19:05:50 21.8 19 25.3
003A3FCE 2019-04-14 18:33:36 21.8 19 25.1
003A3FCE 2019-04-14 18:01:22 21.8 18 25.2
003A3FCE 2019-04-14 17:29:08 21.8 19 25.3
003A3FCE 2019-04-14 16:56:54 21.8 19 25.4
003A3FCE 2019-04-14 16:24:39 21.8 19 25.5
003A3FCE 2019-04-14 15:52:25 21.7 19 25.8
003A3FCE 2019-04-14 15:20:10 21.8 19 25.9
003A3FCE 2019-04-14 14:47:56 21.8 19 25.9
003A3FCE 2019-04-14 14:15:42 21.8 19 25.9
003A3FCE 2019-04-14 13:43:29 21.8 19 26
003A3FCE 2019-04-14 13:11:16 21.8 19 26.1
003A3FCE 2019-04-14 12:39:03 21.8 19 26
003A3FCE 2019-04-14 12:06:51 21.8 19 26
003A3FCE 2019-04-14 11:34:36 21.8 19 26
003A3FCE 2019-04-14 11:02:23 21.8 19 26
003A3FCE 2019-04-14 10:30:10 21.8 19 25.9
003A3FCE 2019-04-14 09:57:57 21.8 19 25.9
003A3FCE 2019-04-14 09:25:43 21.8 19 25.9
003A3FCE 2019-04-14 08:53:29 21.7 19 26
003A3FCE 2019-04-14 08:21:16 21.8 19 26
003A3FCE 2019-04-14 07:49:03 21.7 19 25.8
003A3FCE 2019-04-14 07:16:50 21.7 18 25.8
003A3FCE 2019-04-14 06:44:36 21.7 18 25.8
003A3FCE 2019-04-14 06:12:21 21.6 18 25.9
003A3FCE 2019-04-14 05:40:08 21.7 18 25.9
003A3FCE 2019-04-14 05:07:54 21.8 18 25.9
003A3FCE 2019-04-14 04:35:41 21.8 18 25.9
003A3FCE 2019-04-14 04:03:28 21.8 18 25.9
003A3FCE 2019-04-14 03:31:14 21.8 18 25.8
003A3FCE 2019-04-14 02:58:59 21.8 19 25.8
003A3FCE 2019-04-14 02:26:46 21.8 19 25.5
003A3FCE 2019-04-14 01:54:32 21.8 19 25.3
003A3FCE 2019-04-14 01:22:17 21.8 19 25.3
003A3FCE 2019-04-14 00:50:04 21.8 19 25.3
003A3FCE 2019-04-14 00:17:50 21.8 18 25.3
003A3FCE 2019-04-13 23:45:37 21.8 18 25.3
003A3FCE 2019-04-13 23:13:23 21.8 18 25.5
003A3FCE 2019-04-13 22:41:11 21.9 18 25.5
003A3FCE 2019-04-13 22:08:57 21.9 18 25.4
003A3FCE 2019-04-13 21:36:46 21.9 18 25.5
003A3FCE 2019-04-13 21:04:34 22 18 25.5
003A3FCE 2019-04-13 20:32:21 22 18 25.3
003A3FCE 2019-04-13 20:00:08 22 18 25.3
003A3FCE 2019-04-13 19:27:55 22 18 25.3
003A3FCE 2019-04-13 18:55:42 22 19 25.3
003A3FCE 2019-04-13 18:23:29 22 18 25.1
003A3FCE 2019-04-13 17:51:16 22 19 25.5
003A3FCE 2019-04-13 17:19:02 22.1 19 25.4
003A3FCE 2019-04-13 16:46:49 22.1 19 25.4
003A3FCE 2019-04-13 16:14:34 22.1 19 25.3
003A3FCE 2019-04-13 15:42:21 22.1 19 25.2
003A3FCE 2019-04-13 15:10:06 22.2 19 25.2
003A3FCE 2019-04-13 14:37:54 22.2 19 25.2
003A3FCE 2019-04-13 14:05:41 22.2 19 25.1
003A3FCE 2019-04-13 13:33:28 22.2 19 25.4
003A3FCE 2019-04-13 13:01:14 22.2 19 25.4
003A3FCE 2019-04-13 12:29:01 22.2 19 25.4
003A3FCE 2019-04-13 11:56:48 22.2 19 25.4
003A3FCE 2019-04-13 11:24:34 22.2 19 25.4
003A3FCE 2019-04-13 10:52:22 22.2 19 25.4
003A3FCE 2019-04-13 10:20:09 22.2 19 25.4
003A3FCE 2019-04-13 09:47:55 22.2 19 25.3
003A3FCE 2019-04-13 09:15:40 22.2 19 25.4
003A3FCE 2019-04-13 08:43:25 22.2 19 25.5
003A3FCE 2019-04-13 08:11:09 22.2 19 25.4
003A3FCE 2019-04-13 07:38:54 22.2 18 25.4
003A3FCE 2019-04-13 07:06:37 22.2 19 25.4
003A3FCE 2019-04-13 06:34:22 22.2 18 25.5
003A3FCE 2019-04-13 06:02:07 22.2 18 25.5
003A3FCE 2019-04-13 05:29:54 22.2 18 25.4
003A3FCE 2019-04-13 04:57:40 22.2 18 25.4
003A3FCE 2019-04-13 04:25:26 22.2 19 25
003A3FCE 2019-04-13 03:53:14 22.2 18 25.4
003A3FCE 2019-04-13 03:21:00 22.2 19 25.8
003A3FCE 2019-04-13 02:48:46 22.2 19 25.9
003A3FCE 2019-04-13 02:16:32 22.2 19 25.8
003A3FCE 2019-04-13 01:44:18 22.3 19 25.8
003A3FCE 2019-04-13 01:12:04 22.3 19 25.8
003A3FCE 2019-04-13 00:39:49 22.5 19 25.9
003A3FCE 2019-04-13 00:07:34 22.5 19 25.5
003A3FCE 2019-04-12 23:35:20 22.5 19 25.5
003A3FCE 2019-04-12 23:03:06 22.5 20 25.6
003A3FCE 2019-04-12 22:30:52 22.5 20 25.6
003A3FCE 2019-04-12 21:58:38 22.6 20 25.6
003A3FCE 2019-04-12 21:26:24 22.7 20 25.7
003A3FCE 2019-04-12 20:54:10 22.7 20 25.6
003A3FCE 2019-04-12 20:21:54 22.7 20 25.7
003A3FCE 2019-04-12 19:49:40 22.7 19 25.7
003A3FCE 2019-04-12 19:17:25 22.7 19 25.7
003A3FCE 2019-04-12 18:45:09 22.7 18 25.9
003A3FCE 2019-04-12 18:12:53 22.9 17 26.1
003A3FCE 2019-04-12 17:40:38 22.9 17 26.2
003A3FCE 2019-04-12 17:08:22 22.9 18 26.3
003A3FCE 2019-04-12 16:36:08 22.9 19 26.4
003A3FCE 2019-04-12 16:03:53 22.7 19 26.8
003A3FCE 2019-04-12 15:31:38 22.7 19 27.3
003A3FCE 2019-04-12 14:59:22 22.5 19 27.8
003A3FCE 2019-04-12 14:27:08 22.1 20 26.7
003A3FCE 2019-04-12 13:54:53 21.8 19 23
003A3FCE 2019-04-12 13:22:39 21.2 22 16.3